Погода в Заозерье

Россия / Новгородская область     58°25′18″N   33°10′04″E
темп.,
°C
ветер,
м/с
пор.,
м/с
влажн.,
%
обл.,
%
осадки,
мм/ч
давл.,
гПа
погр.,
м
21 октября, чт
чт2100:00+7ююз71796100 4.3 990976
03:00+11юз92190100 4.6 9871397
06:00+12зюз81891100 0.7 9861356
09:00+12зюз81887100 4.1 9871426
12:00+13зюз71684100 0.6 9891436
15:00+13зюз71480100 0.8 9901048
18:00+11юз51289100 0.1 988715
21:00+11ююз61586100 0.1 985854
22 октября, пт
пт2200:00+11ююз6158287 0.4 9821226
03:00+11юз81776100 0.8 9801653
06:00+9зюз916745 1.2 9831378
09:00+7юз716737 1.2 9841310
12:00+8юз8146525 0.1 9861642
15:00+7юз81569100 0.2 9871670
18:00+6юз8167042 0.1 9891542
21:00+5юз8167288 0.2 9911453
23 октября, сб
сб2300:00+5юз7157599 0.1 9921429
03:00+5юз71693100 1.2 9921370
06:00+5зюз61188100 0.8 9931212
09:00+4юз4118577 1.1 994746
12:00+6зюз5978100 0.1 9971019
15:00+5з4982100 0.4 999988
18:00+4з3893100 0.3 1001952
21:00+3з389599 0.9 1003499
24 октября, вс
вс2400:00+2зсз3596100 0.1 1005584
03:00+2ссз3896100 0.9 1007451
06:00+1ссз41096100 0.4 1009442
09:00+1ссз5108799 1.0 1013923
12:00+2ссз510755 0.1 10171264
15:00+2ссз597210 0.3 10201156
18:000ссз410805 0.0 1023693
21:00−1сз398280 0.0 1026437
25 октября, пн
пн2500:00−2зсз26875 0.0 1027245
03:00−2зсз25885 0.0 1029159
06:00−2зюз248620 0.0 1029133
09:00−1юз3878100 0.0 1029343
12:00+1ююз41166100 0.0 1028545
15:00+1ююз51483100 0.1 1027662
18:00+2юз61475100 0.0 1025630
21:00+1юз515827 0.0 1025564